TimeCDT,TemperatureF,Dew PointF,Humidity,Sea Level PressureIn,VisibilityMPH,Wind Direction,Wind SpeedMPH,Gust SpeedMPH,PrecipitationIn,Events,Conditions,WindDirDegrees,DateUTC
12:10 AM,24.8,19.4,80,30.24,10.0,West,3.5,-,N/A,,Clear,260,2012-10-07 05:10:00
12:30 AM,24.8,21.2,86,30.23,10.0,Calm,Calm,-,N/A,,Clear,0,2012-10-07 05:30:00
12:49 AM,26.6,23.2,87,30.23,10.0,Calm,Calm,-,N/A,,Clear,0,2012-10-07 05:49:00
1:08 AM,23.9,20.5,87,30.22,10.0,Calm,Calm,-,N/A,,Clear,0,2012-10-07 06:08:00
1:27 AM,25.3,21.7,86,30.22,10.0,WSW,3.5,-,N/A,,Clear,240,2012-10-07 06:27:00
1:46 AM,24.4,21.4,88,30.22,10.0,Calm,Calm,-,N/A,,Clear,0,2012-10-07 06:46:00
2:01 AM,24.6,21.2,87,30.21,10.0,Calm,Calm,-,N/A,,Clear,0,2012-10-07 07:01:00
2:29 AM,21.9,19.2,89,30.22,10.0,Calm,Calm,-,N/A,,Clear,0,2012-10-07 07:29:00
2:48 AM,21.9,19.0,89,30.21,10.0,Calm,Calm,-,N/A,,Clear,0,2012-10-07 07:48:00
3:09 AM,21.6,19.4,91,30.20,10.0,Calm,Calm,-,N/A,,Clear,0,2012-10-07 08:09:00
3:28 AM,21.7,19.4,91,30.19,10.0,Calm,Calm,-,N/A,,Clear,0,2012-10-07 08:28:00
3:49 AM,19.8,17.6,91,30.19,7.0,WSW,3.5,-,N/A,,Clear,250,2012-10-07 08:49:00
4:09 AM,21.7,19.6,91,30.19,5.0,West,4.6,-,N/A,,Clear,260,2012-10-07 09:09:00
4:28 AM,23.0,20.7,91,30.19,7.0,WSW,3.5,-,N/A,,Clear,250,2012-10-07 09:28:00
4:49 AM,21.7,19.4,91,30.18,5.0,Calm,Calm,-,N/A,,Clear,0,2012-10-07 09:49:00
5:09 AM,22.5,19.9,90,30.17,10.0,SW,3.5,-,N/A,,Clear,230,2012-10-07 10:09:00
5:28 AM,21.7,19.2,90,30.17,4.0,Calm,Calm,-,N/A,,Clear,0,2012-10-07 10:28:00
5:49 AM,22.1,19.6,90,30.17,7.0,Calm,Calm,-,N/A,,Clear,0,2012-10-07 10:49:00
6:09 AM,21.9,19.8,91,30.16,10.0,SSW,3.5,-,N/A,,Clear,210,2012-10-07 11:09:00
6:29 AM,21.9,19.4,90,30.16,10.0,Calm,Calm,-,N/A,,Clear,0,2012-10-07 11:29:00
6:48 AM,21.9,19.8,91,30.15,10.0,South,3.5,-,N/A,,Clear,190,2012-10-07 11:48:00
7:08 AM,21.7,19.0,89,30.15,10.0,Calm,Calm,-,N/A,,Clear,0,2012-10-07 12:08:00
7:29 AM,24.3,21.2,88,30.15,10.0,Calm,Calm,-,N/A,,Clear,0,2012-10-07 12:29:00
7:49 AM,26.6,23.0,86,30.15,10.0,SSW,3.5,-,N/A,,Clear,210,2012-10-07 12:49:00
8:09 AM,26.8,23.0,86,30.14,10.0,Calm,Calm,-,N/A,,Clear,0,2012-10-07 13:09:00
8:47 AM,31.8,26.2,80,30.14,10.0,SSW,6.9,-,N/A,,Clear,210,2012-10-07 13:47:00
9:09 AM,34.0,27.3,77,30.13,10.0,SW,5.8,-,N/A,,Clear,220,2012-10-07 14:09:00
9:28 AM,34.7,26.8,73,30.13,10.0,SW,8.1,-,N/A,,Clear,220,2012-10-07 14:28:00
9:39 AM,36.5,27.5,70,30.13,10.0,SW,10.4,-,N/A,,Clear,220,2012-10-07 14:39:00
10:10 AM,39.2,26.6,61,30.13,10.0,SW,9.2,-,N/A,,Clear,230,2012-10-07 15:10:00
10:30 AM,42.8,26.6,53,30.12,10.0,SW,10.4,-,N/A,,Clear,230,2012-10-07 15:30:00
10:50 AM,42.8,26.6,53,30.12,10.0,SW,9.2,18.4,N/A,,Clear,220,2012-10-07 15:50:00
11:10 AM,46.4,26.6,46,30.11,10.0,SW,11.5,18.4,N/A,,Clear,230,2012-10-07 16:10:00
11:30 AM,48.2,28.4,46,30.10,10.0,SW,12.7,19.6,N/A,,Clear,230,2012-10-07 16:30:00
11:50 AM,48.2,26.6,43,30.09,10.0,WSW,12.7,23.0,N/A,,Clear,250,2012-10-07 16:50:00
12:10 PM,48.2,24.8,40,30.08,10.0,WSW,15.0,23.0,N/A,,Clear,250,2012-10-07 17:10:00
12:30 PM,50.0,24.8,37,30.07,10.0,WSW,13.8,20.7,N/A,,Clear,250,2012-10-07 17:30:00
12:50 PM,51.8,24.8,35,30.06,10.0,SW,15.0,20.7,N/A,,Clear,220,2012-10-07 17:50:00
1:10 PM,51.8,24.8,35,30.05,10.0,SSW,13.8,19.6,N/A,,Clear,210,2012-10-07 18:10:00
1:30 PM,53.6,26.6,35,30.04,10.0,SW,15.0,21.9,N/A,,Clear,230,2012-10-07 18:30:00
1:50 PM,53.6,24.8,33,30.02,10.0,SW,13.8,18.4,N/A,,Clear,230,2012-10-07 18:50:00
2:30 PM,53.6,23.0,30,30.00,10.0,WSW,11.5,18.4,N/A,,Clear,240,2012-10-07 19:30:00
2:50 PM,53.6,23.0,30,29.99,10.0,SW,9.2,-,N/A,,Clear,220,2012-10-07 19:50:00
2:57 PM,54.1,23.7,31,29.99,10.0,SW,10.4,-,N/A,,Clear,220,2012-10-07 19:57:00
3:09 PM,54.5,22.3,29,29.98,10.0,SW,10.4,16.1,N/A,,Clear,230,2012-10-07 20:09:00
3:29 PM,54.1,22.3,29,29.97,10.0,SSW,8.1,-,N/A,,Clear,210,2012-10-07 20:29:00
3:49 PM,56.1,23.4,28,29.96,10.0,SW,13.8,-,N/A,,Clear,230,2012-10-07 20:49:00
4:09 PM,55.9,24.6,30,29.95,10.0,SW,13.8,18.4,N/A,,Clear,230,2012-10-07 21:09:00
4:29 PM,55.6,24.1,30,29.94,10.0,SW,9.2,18.4,N/A,,Clear,220,2012-10-07 21:29:00
4:49 PM,54.7,23.9,30,29.94,10.0,SW,9.2,-,N/A,,Clear,220,2012-10-07 21:49:00
5:09 PM,54.1,24.4,32,29.93,10.0,WSW,9.2,16.1,N/A,,Scattered Clouds,240,2012-10-07 22:09:00
5:29 PM,54.1,23.9,31,29.93,10.0,SW,5.8,-,N/A,,Mostly Cloudy,220,2012-10-07 22:29:00
5:48 PM,54.1,24.6,32,29.93,10.0,SW,5.8,-,N/A,,Mostly Cloudy,220,2012-10-07 22:48:00
6:09 PM,54.1,25.5,33,29.92,10.0,SW,5.8,-,N/A,,Scattered Clouds,220,2012-10-07 23:09:00
6:29 PM,51.6,23.9,34,29.91,10.0,SSW,3.5,-,N/A,,Clear,210,2012-10-07 23:29:00
6:49 PM,49.1,24.6,38,29.91,10.0,Calm,Calm,-,N/A,,Clear,0,2012-10-07 23:49:00
7:07 PM,45.5,22.8,41,29.91,10.0,South,3.5,-,N/A,,Clear,180,2012-10-08 00:07:00
7:29 PM,41.7,21.6,45,29.91,10.0,South,3.5,-,N/A,,Clear,170,2012-10-08 00:29:00
7:49 PM,39.7,21.0,47,29.91,10.0,South,3.5,-,N/A,,Clear,180,2012-10-08 00:49:00
8:09 PM,39.2,21.2,49,29.90,10.0,Calm,Calm,-,N/A,,Clear,0,2012-10-08 01:09:00
8:29 PM,39.2,22.3,51,29.90,10.0,Calm,Calm,-,N/A,,Clear,0,2012-10-08 01:29:00
8:49 PM,39.2,23.4,53,29.90,10.0,Calm,Calm,-,N/A,,Clear,0,2012-10-08 01:49:00
8:55 PM,38.7,23.2,54,29.89,10.0,Calm,Calm,-,N/A,,Clear,0,2012-10-08 01:55:00
9:30 PM,35.6,21.2,56,29.89,10.0,Calm,Calm,-,N/A,,Clear,0,2012-10-08 02:30:00
9:50 PM,35.6,23.0,60,29.89,10.0,Calm,Calm,-,N/A,,Clear,0,2012-10-08 02:50:00
10:10 PM,35.6,23.0,60,29.89,10.0,Calm,Calm,-,N/A,,Clear,0,2012-10-08 03:10:00
10:30 PM,35.6,23.0,60,29.88,10.0,Calm,Calm,-,N/A,,Clear,0,2012-10-08 03:30:00
10:50 PM,35.6,23.0,60,29.87,10.0,South,3.5,-,N/A,,Clear,180,2012-10-08 03:50:00
11:10 PM,35.6,23.0,60,29.86,10.0,Calm,Calm,-,N/A,,Clear,0,2012-10-08 04:10:00
11:30 PM,33.8,23.0,65,29.86,10.0,Calm,Calm,-,N/A,,Clear,0,2012-10-08 04:30:00
11:50 PM,33.8,21.2,60,29.84,10.0,Calm,Calm,-,N/A,,Clear,0,2012-10-08 04:50:00